Change the Weather History Date:

Saturday, April 27, 2013

  Actual Average Record
Temperature  
Mean Temperature 60 °F 49 °F  
Max Temperature 80 °F 62 °F 87 °F (2001)
Min Temperature 40 °F 37 °F 26 °F (2008)
Degree Days  
Heating Degree Days 5 16  
Month to date heating degree days 789 565  
Since 1 July heating degree days 7198 7256  
Growing Degree Days 10 (Base 50)    
Moisture  
Dew Point 31 °F    
Average Humidity 42    
Maximum Humidity 70    
Minimum Humidity 13    
Precipitation  
Precipitation 0.00 in 0.09 in 0.76 in (2012)
Month to date precipitation 1.18 1.36  
Year to date precipitation 2.18 2.96  
Sea Level Pressure  
Sea Level Pressure 29.90 in    
Wind  
Wind Speed 12 mph (WSW)    
Max Wind Speed 28 mph    
Max Gust Speed 40 mph    
T = Trace of Precipitation, MM = Missing Value Source: NWS Daily Summary

Daily Weather History Graph

Daily Weather History Graph

Search for Another Location

Airport or City:

Trip Planner

Search our weather history database for the weather conditions in past years. The results will help you decide how hot, cold, wet, or windy it might be!

Date:

Astronomy

Apr. 27, 2013 Rise Set
Actual Time 5:42 AM MDT 7:49 PM MDT
Civil Twilight 5:11 AM MDT 8:21 PM MDT
Nautical Twilight 4:31 AM MDT 9:00 PM MDT
Astronomical Twilight 3:48 AM MDT 9:44 PM MDT
Moon 10:25 PM MDT (4/27) 6:59 AM MDT (4/27)
Length of Visible Light 15h 10m
Length of Day
14h 06m
Waning Gibbous, 95% of the Moon is Illuminated
Apr 27
Waning Gibbous
May 2
Last Quarter
May 9
New
May 17
First Quarter
May 24
Full

Hourly Weather History & Observations

Time (MDT) Temp. Windchill Dew Point Humidity Pressure Visibility Wind Dir Wind Speed Gust Speed Precip Events Conditions
12:56 AM 46.9 °F - 33.1 °F 59% 30.06 in - South 11.5 mph - N/A   Unknown
1:56 AM 46.9 °F - 33.1 °F 59% 30.04 in - SSW 13.8 mph - N/A   Unknown
2:56 AM 46.0 °F 39.6 °F 32.0 °F 58% 30.02 in - South 15.0 mph 32.2 mph N/A   Unknown
3:56 AM 43.0 °F 35.7 °F 32.0 °F 65% 30.01 in - South 15.0 mph - N/A   Unknown
4:56 AM 41.0 °F 32.5 °F 32.0 °F 70% 29.99 in - South 17.3 mph - N/A   Unknown
5:56 AM 44.1 °F 35.9 °F 30.9 °F 60% 29.98 in - South 19.6 mph - N/A   Unknown
6:56 AM 46.9 °F - 34.0 °F 61% 29.97 in - South 13.8 mph - N/A   Unknown
7:56 AM 52.0 °F - 34.0 °F 50% 29.97 in - South 9.2 mph - N/A   Unknown
8:56 AM 61.0 °F - 35.1 °F 38% 29.97 in - WSW 11.5 mph - N/A   Unknown
9:56 AM 69.1 °F - 30.9 °F 24% 29.95 in - WNW 10.4 mph - N/A   Unknown
10:56 AM 72.0 °F - 32.0 °F 23% 29.94 in - West 8.1 mph - N/A   Unknown
11:56 AM 75.9 °F - 33.1 °F 21% 29.92 in - West 13.8 mph - N/A   Unknown
12:56 PM 75.9 °F - 30.9 °F 19% 29.89 in - West 11.5 mph - N/A   Unknown
1:56 PM 77.0 °F - 30.0 °F 18% 29.87 in - West 12.7 mph 24.2 mph N/A   Unknown
2:56 PM 79.0 °F - 25.0 °F 14% 29.85 in - West 21.9 mph 40.3 mph N/A   Unknown
3:56 PM 79.0 °F - 26.1 °F 14% 29.83 in - WNW 18.4 mph 33.4 mph N/A   Unknown
4:56 PM 78.1 °F - 24.1 °F 14% 29.82 in - West 20.7 mph 27.6 mph N/A   Unknown
5:56 PM 75.0 °F - 27.0 °F 17% 29.82 in - West 16.1 mph - N/A   Unknown
6:56 PM 73.0 °F - 30.9 °F 21% 29.80 in - WNW 8.1 mph - N/A   Unknown
7:56 PM 66.9 °F - 28.9 °F 24% 29.79 in - SW 4.6 mph - N/A   Unknown
8:56 PM 64.9 °F - 30.0 °F 27% 29.77 in - West 5.8 mph - N/A   Unknown
9:56 PM 66.0 °F - 28.9 °F 25% 29.75 in - WSW 4.6 mph - N/A   Unknown
10:56 PM 60.1 °F - 34.0 °F 38% 29.75 in - SW 6.9 mph - N/A   Unknown
11:56 PM 57.9 °F - 34.0 °F 41% 29.74 in - SSW 8.1 mph - N/A   Unknown